Temp
18 17 16 16 17 18 18 18 19 20 20 20 21 22 22 22 22 23 25 26 25 25 24 23 23 20 19 19 18 18 17 17 17 17 18 18 18 18 18 18 17 17 17 16 17 17 17 17 17 17 17 17 17 17 17 17 17 18 18 18 18 18 18 18 18 18 18 17 17 17 17 16 16 16 16 16 16 16 16 16 16 16 16 16 16 16
17 16 16 17 18 19 19 19 19 20 20 20 21 21 21 21 22 24 25 26 26 26 22 20 20 19 19 19 17 17 17 17 17 17 18 18 18 18 18 18 17 17 17 17 17 17 17 17 17 17 17 17 17 17 17 17 17 18 18 18 18 18 18 18 18 18 17 17 17 17 16 16 15 16 16 16 16 16 16 16 16 16 16 16 16 16
16 16 17 18 19 20 20 20 20 20 20 20 20 21 21 21 22 24 25 25 24 25 21 18 20 19 18 18 17 17 17 17 17 17 17 17 17 17 17 17 17 17 17 17 17 17 17 17 17 17 17 17 17 16 16 17 17 18 18 18 18 18 18 18 18 17 16 16 17 17 16 16 16 15 16 16 16 16 16 16 16 16 16 16 16 16
15 16 18 19 19 20 20 20 20 20 20 20 19 20 20 21 22 22 24 23 21 22 20 19 20 19 18 18 17 17 17 17 17 17 17 17 17 17 17 17 17 17 17 17 17 17 17 17 17 17 16 16 16 16 16 16 16 17 17 17 17 17 17 17 17 16 16 17 16 16 16 16 16 16 16 16 16 15 16 16 16 16 15 15 16 15
16 17 18 19 20 20 19 19 20 19 19 19 19 20 20 21 22 22 23 21 20 20 20 20 19 19 19 19 18 18 17 17 17 17 17 17 17 17 17 17 17 17 17 17 18 17 17 17 17 17 17 16 16 16 16 16 16 16 16 17 17 17 17 17 16 16 16 16 15 15 15 16 16 15 16 16 15 15 15 15 15 15 15 15 15 15
16 18 19 19 19 19 19 19 19 19 19 19 20 20 21 22 23 23 22 22 21 20 20 21 20 20 19 19 19 18 18 18 17 17 17 17 17 17 17 17 17 17 17 17 17 17 17 17 17 17 17 16 16 16 16 16 16 16 16 16 17 17 17 16 16 16 16 16 16 16 16 15 15 15 15 15 15 15 15 15 14 14 14 14 14 14
16 18 19 19 19 19 19 19 19 20 19 19 20 21 22 22 23 23 22 22 21 20 20 21 21 20 19 19 19 18 18 18 18 18 17 17 17 17 17 17 17 17 17 17 17 17 17 17 17 17 17 17 16 16 16 16 16 16 16 16 17 17 16 16 16 16 16 16 16 16 16 16 16 15 14 15 14 14 14 14 14 14 14 14 14 14
17 18 18 18 18 18 18 18 19 20 19 19 20 21 22 22 22 23 22 22 21 21 20 20 21 20 19 20 20 19 19 19 18 18 18 17 17 17 17 17 17 17 17 17 17 17 17 17 17 17 17 17 16 16 16 16 16 16 16 16 16 17 16 16 16 16 16 16 16 16 16 15 15 15 14 14 14 13 13 13 13 13 13 13 13 13
18 18 17 18 18 18 18 19 20 20 20 20 21 22 22 22 23 23 23 22 21 21 20 20 20 20 19 20 20 19 19 19 19 18 18 18 17 17 17 17 17 17 17 17 17 17 17 17 17 17 17 17 16 16 16 16 16 16 16 16 16 16 16 16 16 16 16 16 16 16 16 15 15 15 14 13 13 13 13 13 12 12 12 12 12 12
19 18 19 18 18 18 19 20 21 20 21 22 22 23 23 22 23 23 22 22 21 21 20 20 20 20 20 19 19 19 19 19 19 18 18 18 18 17 17 17 17 17 17 17 17 17 17 17 17 17 17 16 16 16 16 16 16 16 16 16 16 16 16 16 16 16 16 16 16 16 16 15 15 14 13 13 13 12 12 12 12 12 12 12 11 12
19 19 20 19 19 20 20 21 21 21 22 22 23 23 22 22 23 22 21 21 21 20 20 20 20 21 20 19 19 20 20 21 20 19 18 18 18 17 17 17 17 17 17 17 17 17 17 17 17 16 16 16 16 16 16 16 16 16 16 15 15 16 16 16 16 16 16 16 16 16 16 15 15 14 13 13 12 12 12 12 11 11 11 11 11 11
18 18 19 20 20 21 21 21 21 21 23 23 23 22 21 21 22 21 21 21 20 20 21 21 20 20 20 20 20 20 21 21 21 20 19 18 18 18 17 17 17 17 17 17 17 17 17 17 16 16 16 16 16 16 16 16 16 15 15 15 16 15 16 16 16 16 16 16 16 16 16 15 15 14 13 12 12 12 12 11 11 11 11 11 11 11
17 17 19 20 21 21 21 20 20 21 22 22 22 21 21 20 20 20 20 20 20 20 21 21 20 20 20 21 21 20 21 22 21 21 19 19 18 18 17 17 17 17 16 17 17 17 17 17 16 16 16 16 16 16 16 16 16 15 15 16 16 15 15 16 16 16 16 16 16 16 15 15 14 13 13 13 12 12 12 11 11 11 11 11 11 11
16 17 19 20 21 21 21 20 19 20 20 21 21 20 20 20 19 19 20 20 20 20 21 21 20 20 20 22 22 21 21 22 22 21 20 19 18 18 18 17 17 17 17 17 17 17 17 16 16 16 16 16 16 16 16 15 15 15 15 16 16 16 15 16 16 16 16 15 15 15 15 14 14 13 13 12 12 12 12 11 11 11 11 10 10 10
15 16 18 19 20 21 21 20 21 20 20 21 21 20 20 20 20 20 20 20 20 21 20 20 20 20 21 21 21 21 22 22 22 21 20 19 18 18 17 17 17 17 17 17 17 17 17 16 16 16 16 16 15 15 15 15 15 15 15 15 16 15 15 15 15 15 15 15 15 15 14 14 13 13 13 12 12 12 11 11 11 11 10 10 10 10
16 16 18 20 20 21 21 21 22 22 20 21 21 20 20 21 21 20 20 20 20 21 20 20 20 20 21 21 19 19 21 22 21 20 19 19 18 18 17 17 17 17 17 17 17 17 16 16 16 16 16 15 15 15 14 14 14 15 15 15 15 15 15 15 15 15 15 15 14 14 14 14 13 13 13 12 12 12 11 11 11 10 10 10 10 10
16 17 19 20 20 21 22 22 23 22 21 20 20 20 20 21 22 21 20 19 20 21 20 20 20 20 20 21 20 19 21 21 20 20 19 18 18 17 17 17 17 17 17 17 17 17 16 16 16 16 15 15 15 14 14 14 14 15 15 15 15 15 14 15 15 15 15 15 14 14 13 13 13 13 13 12 12 11 11 11 11 10 10 10 10 10
17 18 20 20 20 21 22 23 23 23 22 21 20 21 21 21 22 21 20 20 20 21 20 19 20 20 20 21 20 19 20 19 19 19 18 18 18 17 17 17 17 17 17 17 17 17 16 16 16 15 15 15 15 14 14 14 14 15 15 15 15 14 14 15 15 15 15 14 14 13 13 13 13 13 12 12 12 11 11 11 11 10 10 10 10 10
18 18 20 21 21 21 22 22 22 22 23 22 21 22 22 21 21 20 20 20 20 20 20 20 20 20 20 20 19 19 19 19 19 19 18 18 18 17 17 17 17 17 17 17 17 16 16 16 16 15 15 15 14 14 14 14 14 15 15 15 15 15 14 14 14 14 14 14 13 13 13 13 13 12 12 12 11 11 11 11 10 10 10 10 10 10
18 18 19 20 21 22 21 21 20 20 22 22 22 23 23 22 21 21 20 20 20 20 20 20 20 20 21 20 19 19 19 18 18 18 18 18 18 18 18 17 17 17 17 17 16 16 16 16 16 15 15 15 14 14 14 14 14 14 14 14 14 14 14 14 14 14 14 13 13 13 12 12 12 12 12 12 11 11 11 11 10 10 10 10 10 10
17 17 19 20 20 21 21 20 20 20 20 21 21 21 22 22 21 21 21 20 21 21 20 20 20 21 22 21 19 19 19 19 19 18 18 18 18 18 18 17 18 17 17 17 16 16 16 16 16 15 15 15 14 14 13 13 14 14 14 14 14 14 14 14 13 13 13 13 13 12 12 12 12 12 12 11 11 11 11 10 10 10 10 10 10 10
18 18 19 19 20 20 21 21 22 22 21 21 21 21 21 21 21 21 20 20 21 21 20 20 20 22 24 21 19 20 19 19 19 19 19 18 18 18 18 18 18 17 17 17 16 16 16 16 15 15 15 14 14 13 13 13 13 14 14 14 14 14 13 13 13 13 13 13 12 12 12 12 12 11 11 11 11 11 10 10 10 10 10 9 9 9
18 18 18 19 20 20 21 22 22 22 22 21 22 22 21 22 21 21 20 20 21 20 20 21 20 22 24 21 20 20 19 19 19 19 19 18 18 18 18 18 18 17 17 17 16 16 16 16 15 15 15 14 13 13 13 13 13 13 13 13 13 13 13 13 13 12 12 12 12 12 11 11 11 11 11 11 11 10 10 10 10 10 10 9 9 9
19 18 18 19 20 20 21 21 21 22 23 22 22 22 21 22 22 22 22 21 21 20 21 21 20 22 23 20 19 20 19 19 19 18 19 18 17 18 18 18 18 17 17 17 16 16 16 16 15 15 15 14 13 13 13 13 13 13 13 13 13 13 13 12 12 12 12 12 11 11 11 11 11 11 11 11 10 10 10 10 10 10 10 9 9 9
19 18 18 18 19 20 21 21 20 21 22 22 23 22 22 23 23 22 22 21 21 21 21 21 21 22 22 19 19 20 19 19 19 18 18 17 17 17 18 18 17 17 17 16 16 16 15 15 15 15 15 14 13 13 12 12 12 12 12 12 13 13 12 12 12 12 11 11 11 10 10 11 11 11 11 10 10 10 10 10 10 9 9 9 9 9
19 18 18 18 18 18 19 19 20 20 21 22 23 23 23 23 23 22 21 21 21 20 20 21 21 22 21 19 19 20 19 19 18 18 18 17 17 17 17 18 17 17 16 16 16 15 15 15 15 15 14 14 13 13 12 12 12 12 12 12 12 12 12 12 12 11 11 11 10 10 10 10 10 10 10 10 10 10 10 10 9 9 9 9 9 9
19 18 18 19 20 20 20 20 20 20 21 22 22 22 22 22 22 22 21 21 21 21 20 21 22 22 22 20 19 20 19 19 18 18 18 17 17 17 17 17 17 16 16 16 16 15 15 15 15 15 14 14 13 13 12 12 12 11 11 11 12 12 12 11 11 11 11 11 10 10 10 10 10 10 10 10 10 10 10 9 9 9 9 9 9 9
19 19 19 19 20 20 20 22 21 20 22 22 22 22 22 22 22 22 22 21 21 20 21 21 21 22 22 20 19 19 19 18 18 18 18 17 17 17 17 17 16 16 16 16 15 15 15 15 15 15 14 13 13 12 12 12 12 12 12 11 12 12 12 11 11 11 11 11 11 10 10 10 10 10 10 10 10 9 9 9 9 9 9 9 9 9
19 19 19 19 20 19 19 21 21 21 23 23 23 23 22 22 22 23 23 22 22 22 22 22 21 22 24 21 19 19 19 19 18 18 18 17 17 17 17 17 16 16 16 16 15 15 15 15 15 14 14 13 13 12 12 12 11 11 11 11 11 11 11 11 11 11 11 11 10 10 10 10 10 10 10 10 9 9 9 9 9 9 9 9 9 8
19 20 19 19 20 20 20 20 21 22 22 22 23 23 23 23 23 24 23 21 21 23 23 22 22 23 24 21 19 19 19 19 18 18 18 17 17 17 17 16 16 16 16 16 15 15 15 15 15 14 14 13 13 12 12 12 11 11 11 11 11 11 11 11 11 11 10 10 10 10 10 10 10 10 10 10 9 9 9 9 9 8 8 8 8 8
19 19 18 18 20 21 20 20 21 23 22 22 22 21 22 23 22 22 22 20 20 21 21 21 22 23 22 20 19 19 19 18 18 18 17 17 17 17 17 16 16 16 16 16 16 16 15 15 15 14 14 13 12 12 12 12 11 11 11 10 10 11 11 11 11 10 10 10 10 10 10 10 10 10 10 9 9 9 9 8 8 8 8 8 8 7
19 19 18 19 21 21 20 19 20 22 22 22 22 20 21 22 22 21 22 22 22 22 21 20 22 23 22 20 19 19 18 18 18 17 17 17 17 17 17 17 17 16 16 16 16 15 15 15 15 14 14 13 12 12 12 12 11 11 11 10 10 11 11 11 11 10 10 10 10 10 10 10 10 9 9 9 9 9 8 8 8 8 8 8 7 7
19 20 19 19 20 20 19 19 20 21 21 21 21 22 21 21 22 22 22 22 21 21 22 22 23 23 21 19 19 19 18 18 18 17 17 17 17 17 17 17 17 16 16 16 16 16 15 15 15 15 14 13 13 13 12 12 12 11 11 11 11 11 10 10 10 10 10 10 10 10 10 10 10 9 9 9 9 8 8 8 8 8 8 8 7 7
19 20 19 18 20 21 19 19 20 20 21 21 20 20 21 22 23 23 23 24 22 20 21 23 23 22 19 19 20 19 18 19 18 18 18 17 17 17 17 17 17 17 17 16 16 16 15 15 15 15 14 13 13 13 13 12 12 11 11 11 11 10 10 10 10 10 9 10 10 10 10 10 9 9 9 9 8 8 8 8 8 8 8 7 7 6
19 20 19 18 19 19 19 20 20 20 20 21 19 18 18 20 22 23 24 24 21 19 20 22 23 22 20 20 21 19 19 19 18 18 18 17 17 17 17 17 17 17 17 16 16 16 15 15 15 14 14 13 13 13 12 12 12 11 11 11 10 10 10 10 9 9 9 9 10 10 10 10 9 9 9 8 8 8 8 8 8 7 7 7 7 7
20 20 20 18 17 18 19 20 20 20 20 21 21 18 17 18 20 22 23 22 21 20 20 22 24 23 20 19 20 19 19 19 18 18 17 17 17 17 17 17 17 17 17 16 16 16 15 15 15 14 14 13 13 13 12 12 12 11 11 10 10 10 10 10 9 9 9 9 9 10 10 9 9 9 9 8 8 8 8 8 7 7 7 7 7 6
20 20 20 19 17 18 19 19 19 20 20 21 22 20 20 21 22 23 23 22 21 20 20 21 22 21 19 19 19 19 18 18 18 17 17 17 17 17 17 17 17 17 17 16 16 16 16 15 15 14 14 13 13 13 12 12 12 11 11 10 10 10 10 9 9 9 9 9 9 9 9 9 9 9 8 8 8 8 8 7 7 7 7 7 6 6
19 20 20 19 18 17 18 19 19 20 20 21 22 22 21 20 20 22 23 22 21 20 19 20 21 20 19 19 19 18 19 19 19 18 17 17 17 17 17 17 17 16 16 16 16 16 15 15 15 14 14 13 13 13 12 12 12 11 10 10 10 10 9 9 9 9 9 9 9 9 9 9 9 9 8 8 8 8 8 7 7 7 7 7 7 6
19 19 19 19 18 17 18 19 19 19 20 21 21 22 21 17 18 21 22 22 22 21 18 19 20 19 19 19 18 19 20 20 20 20 18 17 16 16 17 16 16 16 16 16 16 15 15 15 15 14 14 13 13 13 12 12 12 11 10 10 10 10 9 9 9 9 9 9 9 9 9 9 9 9 8 8 8 8 8 7 7 7 7 7 7 6
18 19 19 19 19 18 18 19 18 19 20 20 21 22 19 17 19 22 21 21 22 21 19 18 20 19 17 18 18 19 20 21 21 21 19 17 16 16 16 16 16 15 15 15 15 15 15 14 14 14 13 13 13 13 12 12 11 11 10 10 10 10 9 9 9 9 9 9 9 9 9 9 9 9 9 8 8 8 8 8 7 7 7 7 7 6
18 18 18 18 19 18 18 19 18 19 20 20 20 20 18 18 21 22 21 21 22 21 19 18 19 19 17 17 18 19 21 21 22 21 18 16 16 16 16 15 15 15 15 15 15 15 14 14 14 14 13 13 13 13 12 12 11 11 10 10 10 10 10 10 9 9 9 9 9 9 9 9 9 9 9 8 8 8 8 8 7 7 7 7 6 6
18 17 16 18 19 18 18 19 18 19 20 18 18 18 18 20 22 21 21 20 20 21 20 18 19 18 18 18 18 20 21 20 20 19 17 16 17 16 15 15 14 14 14 14 14 14 14 14 14 14 13 13 13 13 12 12 11 11 10 10 10 10 10 10 9 9 9 9 9 9 9 9 9 9 9 8 8 8 8 7 7 7 7 7 6 6
19 18 17 18 18 17 18 18 18 19 20 18 18 20 21 21 21 21 21 19 19 19 19 19 19 18 18 19 19 19 20 19 19 18 17 16 16 16 15 15 14 14 14 13 13 14 14 14 13 13 13 13 13 12 12 12 11 11 10 10 10 10 10 9 9 9 9 9 9 9 9 9 9 9 9 8 8 8 8 7 7 7 7 7 6 6
19 19 19 18 18 18 19 19 18 19 19 17 17 20 21 19 18 20 21 21 20 19 18 19 19 18 17 19 19 19 19 19 18 17 16 16 16 15 15 15 14 14 13 13 13 14 14 14 13 13 13 13 12 12 12 12 12 11 11 11 10 10 10 10 9 9 9 9 9 9 8 8 8 8 8 8 8 8 7 7 7 7 7 7 6 6
18 18 19 19 18 17 19 19 18 18 17 16 17 18 19 18 17 17 20 21 20 19 18 19 19 18 16 18 19 18 18 19 18 17 16 16 16 15 15 14 14 13 13 13 13 14 14 14 13 13 13 12 12 12 12 12 12 11 11 11 10 10 10 10 9 9 9 9 9 8 8 8 8 8 8 8 8 8 7 7 7 7 7 7 6 6
16 16 17 18 18 17 17 18 17 17 17 17 17 17 17 18 18 17 19 20 20 19 18 18 19 18 17 17 18 18 18 17 17 16 15 15 15 15 15 14 13 13 13 13 13 13 13 13 13 12 12 12 12 12 12 12 12 12 11 11 11 10 10 10 9 9 9 9 8 8 8 8 8 8 8 8 8 8 8 7 7 7 6 6 6 6
16 16 17 18 18 18 18 18 17 17 17 17 17 18 18 18 18 17 18 19 19 18 18 18 18 17 17 18 18 19 18 17 16 15 15 15 15 14 14 14 13 13 13 13 13 13 13 13 12 12 12 12 12 12 12 12 12 12 11 11 11 10 10 10 9 9 9 8 8 8 8 8 8 8 8 8 8 7 7 7 7 7 6 6 6 6
17 17 17 17 17 18 18 18 17 17 17 17 17 18 18 18 18 18 17 18 18 18 18 17 17 18 19 19 18 19 18 16 16 16 15 15 14 14 14 14 13 12 13 13 13 13 13 12 12 11 11 11 12 12 12 12 12 12 11 11 10 10 10 10 9 9 9 8 8 8 8 8 8 7 7 7 7 7 7 7 7 7 7 7 7 7
16 17 17 17 17 17 17 17 17 18 18 18 17 18 18 17 18 19 18 19 19 19 19 18 17 17 19 18 18 19 18 16 15 15 15 14 14 14 14 13 12 12 13 13 13 13 13 12 12 11 11 11 12 12 12 12 12 12 11 11 10 10 10 9 9 9 8 8 8 8 8 8 8 7 7 7 7 7 7 7 7 7 7 7 8 8
16 17 16 16 18 18 18 18 18 19 19 19 18 18 17 16 18 20 20 20 20 19 20 20 18 17 16 15 16 18 19 16 15 15 15 14 14 14 13 12 12 12 12 12 12 13 13 12 12 12 11 11 12 12 12 12 11 11 11 11 10 10 10 9 9 9 8 8 8 7 8 7 7 7 7 7 7 7 7 7 8 8 8 8 8 8
17 17 17 18 19 18 18 18 17 18 19 18 17 17 16 15 18 20 19 19 19 19 19 20 19 19 18 16 14 16 18 17 15 15 15 14 13 13 12 12 12 12 12 12 12 12 12 12 12 11 11 11 11 12 12 12 11 11 11 11 11 11 10 9 9 8 8 8 8 8 8 7 7 7 7 7 7 7 7 7 7 7 8 8 8 8
Height
756 764 767 759 753 751 751 755 757 755 757 761 762 762 762 765 766 760 753 747 747 755 763 764 769 779 783 783 784 784 785 787 788 788 788 787 787 787 788 789 790 790 789 788 789 790 791 792 793 794 796 797 800 802 804 806 808 809 811 812 812 812 813 814 815 817 818 819 822 824 826 827 829 830 831 831 832 833 833 834 835 835 836 836 835 835
757 764 757 747 746 749 753 757 758 757 759 762 764 763 764 765 762 756 751 748 745 752 768 774 776 783 783 783 786 785 787 788 787 787 786 786 786 787 788 789 789 789 788 788 788 789 790 792 793 794 796 797 800 802 804 806 808 810 811 812 813 813 814 815 816 817 819 822 824 825 827 828 829 831 831 832 833 833 834 834 835 836 836 835 835 834
760 756 746 745 749 750 754 755 758 760 759 763 767 767 769 766 761 756 750 749 749 754 773 781 779 786 786 784 787 786 787 787 787 786 785 784 785 786 787 787 788 788 788 787 787 788 790 792 794 795 797 799 800 803 805 807 808 809 811 812 812 813 814 815 816 817 820 823 825 826 827 828 830 831 832 833 833 834 834 835 835 836 836 835 835 834
759 750 744 747 748 749 754 755 757 761 761 763 767 771 771 765 763 761 755 758 760 760 772 779 782 787 787 786 788 786 786 787 787 787 785 785 785 784 784 784 785 785 786 786 787 788 790 792 794 796 798 799 801 804 805 807 808 810 811 812 812 813 814 815 816 818 820 823 825 827 828 828 830 832 833 833 834 834 834 835 835 835 835 835 835 834
753 746 742 745 746 749 755 756 757 761 764 764 765 769 769 764 762 759 758 763 767 769 771 776 788 793 787 788 789 786 786 787 787 787 786 785 785 784 784 784 784 783 784 786 787 789 789 791 793 796 797 799 801 803 805 807 808 810 811 811 812 813 814 815 816 819 821 822 824 826 828 829 831 832 833 833 834 835 835 835 835 835 835 835 835 835
752 744 740 743 747 750 754 757 756 757 764 765 762 762 762 761 759 757 760 762 768 780 775 770 787 796 788 787 789 786 786 787 787 787 786 785 785 785 785 785 785 785 786 786 787 787 788 791 794 796 797 799 800 803 805 807 808 810 810 811 812 813 815 816 817 820 821 822 823 825 827 829 830 832 833 834 835 835 835 835 835 835 836 836 835 835
749 743 740 743 747 751 755 756 752 752 763 767 759 755 757 759 758 757 760 760 767 778 773 767 779 792 792 786 785 786 786 787 787 786 785 783 783 784 784 784 784 784 786 787 787 787 787 790 793 795 796 798 800 802 804 806 808 810 810 811 812 813 815 816 818 819 821 822 823 825 826 828 829 831 833 834 835 835 835 835 835 836 836 836 836 835
742 743 744 744 746 752 755 753 749 748 760 763 753 749 755 758 759 759 760 762 767 771 774 773 773 787 797 785 778 783 785 787 787 785 783 781 781 782 782 782 782 783 784 785 786 786 787 789 791 793 795 798 800 802 804 806 808 810 810 811 812 813 815 817 818 819 821 822 824 825 827 829 830 831 833 835 835 836 836 836 836 837 837 837 837 836
737 743 745 745 747 750 747 744 744 747 755 756 747 746 751 755 756 756 758 762 766 771 780 781 775 785 795 782 775 781 784 786 784 780 779 778 779 779 779 780 781 781 782 783 785 785 787 789 791 793 795 798 800 801 803 805 807 809 810 811 812 814 815 817 819 820 821 822 824 825 826 829 831 832 833 835 835 836 836 836 837 838 838 838 838 837
735 737 738 742 746 743 739 739 741 746 750 746 742 744 748 753 754 755 760 762 766 774 779 779 776 782 789 782 778 782 783 781 776 774 775 775 775 776 777 778 779 780 782 783 784 785 787 789 791 793 796 798 800 801 803 805 807 809 810 811 813 814 815 817 819 820 822 823 824 825 827 828 830 832 834 835 835 836 836 837 838 838 839 839 839 838
733 731 732 736 738 735 735 738 738 742 744 741 742 746 751 755 754 757 762 763 773 780 773 770 772 775 782 780 776 774 767 762 763 769 772 772 772 773 774 776 777 779 781 783 785 786 788 789 791 793 795 798 800 801 803 805 807 809 810 811 813 814 816 818 820 821 823 824 825 826 827 828 830 832 833 834 835 836 837 838 839 839 840 840 840 839
735 734 732 727 727 729 733 736 738 738 737 739 744 750 759 765 760 764 769 770 782 782 765 763 768 773 779 774 768 761 751 749 754 760 764 765 766 768 770 773 774 777 780 782 784 786 787 788 790 792 795 798 799 801 803 804 806 808 809 811 812 814 816 818 820 822 823 824 825 826 827 829 830 832 833 834 836 837 838 839 839 840 841 841 841 840
739 736 731 725 724 726 732 739 742 740 738 741 747 754 767 777 776 779 780 778 783 773 758 759 766 775 774 759 753 752 745 745 746 747 751 755 759 762 766 769 772 776 778 780 782 784 785 786 788 791 794 796 798 799 802 803 805 807 808 810 812 814 817 819 821 822 823 824 825 826 827 829 831 833 834 835 837 838 839 839 840 840 841 842 842 842
745 737 731 730 726 721 727 739 744 743 741 743 748 755 766 777 784 789 786 783 781 766 755 758 765 775 769 748 741 742 738 737 736 739 745 750 755 758 762 766 770 774 776 778 780 782 783 784 786 790 793 795 797 799 800 802 805 806 808 810 812 814 817 819 821 822 823 824 825 826 828 830 832 834 835 837 838 839 839 840 840 841 842 843 843 843
748 744 732 728 724 718 721 728 731 735 740 741 743 750 758 762 768 777 778 776 773 762 760 766 768 768 760 746 740 735 731 733 736 741 747 752 757 760 763 767 769 772 774 776 778 780 782 784 786 789 792 794 796 798 799 802 804 806 807 810 811 814 817 818 820 822 823 824 825 826 828 830 832 834 836 838 839 839 840 840 841 842 843 844 844 845
744 741 724 718 717 714 719 722 719 728 741 741 740 748 753 748 748 760 766 764 761 760 763 768 765 757 747 739 739 735 732 735 740 744 750 754 758 761 765 767 768 770 772 774 776 778 781 783 785 788 790 793 795 797 798 801 803 805 806 809 811 814 816 818 820 821 822 824 825 827 829 831 833 835 837 838 839 840 841 841 842 843 845 845 845 846
740 736 719 715 717 712 715 718 715 723 736 741 743 745 743 737 737 751 763 764 764 763 763 764 760 756 750 741 738 737 736 739 742 746 751 753 756 760 763 764 766 768 770 772 774 776 779 782 784 786 789 791 794 796 798 801 803 804 806 809 812 814 816 818 820 821 823 824 825 827 829 831 833 835 837 838 839 840 841 842 842 844 845 846 847 847
733 733 718 714 719 713 710 713 715 716 722 735 743 736 734 738 741 747 758 766 770 767 764 764 760 757 755 747 743 743 743 744 745 746 750 753 755 758 760 762 764 766 768 771 773 775 778 781 783 785 788 790 793 795 798 801 803 804 806 809 812 814 816 818 820 821 822 824 825 827 829 832 834 835 837 838 839 840 841 842 843 845 846 847 847 848
726 730 719 711 716 714 709 715 723 719 713 722 728 724 732 748 751 752 757 762 768 770 767 765 764 759 752 747 748 748 746 746 746 746 749 750 751 753 756 760 762 764 768 770 772 775 777 781 782 785 788 790 793 795 798 802 803 804 807 810 812 815 816 818 820 821 823 824 825 827 830 832 834 836 837 838 840 840 841 842 843 845 846 847 848 848
725 731 725 712 709 712 713 720 729 727 718 718 722 722 727 737 742 746 752 754 757 765 768 766 766 758 742 739 743 740 738 740 742 745 745 743 745 749 752 756 758 762 765 767 770 773 776 779 782 784 787 790 793 796 798 802 803 805 808 810 813 815 816 818 820 821 823 824 826 828 830 833 834 836 837 839 840 840 841 842 844 845 847 848 848 849
727 731 727 717 711 715 719 717 718 721 722 724 729 730 728 729 734 737 744 748 745 753 765 767 766 751 727 726 733 730 729 732 733 736 737 737 741 745 748 752 755 759 763 765 768 771 774 778 781 784 786 789 794 796 799 802 803 805 808 810 812 814 816 818 820 821 823 824 826 829 831 833 834 836 837 839 840 841 841 843 845 846 847 848 849 849
727 728 727 722 718 718 713 705 705 710 716 721 726 729 728 728 735 742 750 749 738 742 754 758 757 738 714 715 723 722 724 725 725 727 730 733 737 741 746 749 753 757 760 764 767 770 774 777 781 784 786 790 794 796 798 801 803 806 808 810 812 814 815 817 819 821 823 825 827 829 831 833 835 836 837 839 840 841 842 843 845 846 848 849 850 850
720 725 727 723 717 714 706 701 703 704 709 717 718 720 725 726 730 740 748 744 737 743 748 749 747 729 709 712 716 716 720 720 720 723 726 732 736 740 745 748 752 756 759 763 766 770 773 776 780 783 785 790 794 795 798 801 803 806 808 810 812 813 815 817 819 821 823 826 827 829 831 833 835 836 837 839 840 841 842 844 846 847 848 850 850 851
718 724 728 723 714 709 704 702 704 702 706 716 716 715 721 721 720 724 730 731 734 741 741 747 750 727 710 716 715 714 720 721 723 726 728 734 738 741 745 747 751 755 758 763 766 769 773 776 780 783 785 790 793 794 797 800 803 805 807 809 811 812 815 816 819 821 823 826 828 829 832 833 835 836 837 839 840 841 843 844 846 848 849 850 851 851
718 724 728 728 724 720 717 715 715 711 709 712 712 712 713 713 715 721 725 726 732 736 733 739 744 726 713 719 717 716 722 725 727 730 731 736 740 742 745 747 750 755 758 762 765 769 774 775 779 782 784 789 792 793 796 798 802 804 806 809 810 812 815 816 818 821 823 825 828 829 832 833 835 836 837 839 840 841 843 845 847 849 849 850 851 852
715 721 724 728 731 732 730 724 720 715 710 706 706 707 708 709 713 718 724 727 730 738 736 730 729 721 717 722 720 719 725 727 730 732 732 737 739 740 743 746 749 754 757 761 764 767 772 774 777 781 783 787 790 792 795 797 800 803 805 808 810 811 814 816 818 821 823 825 827 829 832 833 835 836 837 839 840 842 844 846 848 849 850 850 851 852
713 717 717 718 717 718 717 711 709 708 707 706 706 706 708 711 711 715 722 723 724 734 735 725 720 718 719 725 724 722 725 727 729 732 733 736 739 740 743 746 749 753 755 759 763 766 771 773 776 779 782 785 788 791 794 796 798 802 804 807 810 811 813 815 818 820 823 825 827 829 831 833 835 836 838 840 841 843 845 847 849 850 850 851 851 852
713 715 715 712 706 707 705 700 702 704 702 704 706 707 709 710 712 715 719 718 720 729 730 724 722 718 715 722 725 722 723 726 727 729 730 733 737 739 743 747 750 753 756 759 763 766 769 772 774 778 781 784 788 791 794 796 798 800 802 805 809 811 812 815 817 820 822 825 827 829 831 833 835 836 838 840 842 844 846 847 849 850 851 851 852 853
714 715 713 710 706 707 706 700 699 699 698 699 699 703 707 709 710 709 711 714 715 715 716 718 723 715 707 715 721 716 716 718 720 725 727 731 736 739 743 747 750 753 756 759 761 764 767 770 772 776 780 783 786 789 793 796 797 799 802 805 807 809 811 814 816 819 822 824 826 828 830 833 835 836 839 841 842 844 846 848 849 850 851 852 852 853
712 712 711 710 705 704 705 702 697 695 697 699 696 698 701 705 706 702 707 717 716 709 709 713 716 709 702 709 715 711 711 714 719 725 728 732 736 738 742 746 749 752 754 756 759 762 765 768 771 775 779 782 785 787 790 794 796 798 801 804 807 808 810 813 815 818 820 822 825 827 830 833 835 837 839 841 843 845 846 848 849 850 851 852 853 854
711 712 712 710 705 704 705 704 698 693 695 699 701 705 704 703 708 708 710 716 717 716 717 716 714 710 705 708 712 712 715 718 722 726 728 731 734 736 741 745 747 750 752 754 758 761 764 767 771 774 777 780 783 785 788 791 794 797 800 803 806 807 809 812 814 816 819 822 824 827 830 833 835 837 839 841 843 845 846 848 849 851 852 852 853 854
710 712 711 707 706 706 705 706 703 695 695 698 702 708 709 705 707 708 707 707 709 713 719 721 717 710 705 708 712 714 716 719 721 725 728 731 733 734 738 741 744 747 750 753 756 760 763 766 768 771 774 778 782 784 786 789 792 795 799 802 805 805 808 810 812 816 818 821 824 827 830 832 834 837 839 841 843 845 846 848 849 851 852 852 853 855
706 707 708 709 710 708 707 708 705 699 703 707 702 700 704 704 704 704 703 703 707 709 712 712 708 701 702 707 711 715 720 720 720 721 723 727 730 732 734 736 739 743 745 749 753 756 759 762 765 769 772 776 779 781 784 787 789 793 796 800 803 804 806 809 812 815 818 821 824 827 829 832 834 836 839 841 843 845 846 848 849 851 852 852 854 855
706 704 708 712 710 708 708 707 704 708 714 713 703 699 699 698 697 698 698 697 701 707 706 701 698 700 705 707 707 712 715 712 711 713 714 719 725 729 732 734 736 739 742 746 750 753 756 760 764 768 771 774 777 780 783 786 788 791 794 797 801 803 806 809 812 815 818 821 824 826 829 831 833 836 838 840 842 844 846 848 849 851 852 852 854 855
705 705 707 712 714 712 709 706 712 720 716 703 701 706 704 699 695 694 694 695 700 707 707 699 695 697 702 700 699 703 705 704 707 711 713 715 718 722 728 731 734 738 742 745 748 752 755 759 763 766 769 773 776 779 783 787 789 793 795 797 800 803 805 808 811 815 818 821 823 826 828 830 833 835 837 839 841 844 846 847 849 851 852 853 854 856
702 704 705 712 719 717 712 714 720 719 708 696 697 704 705 703 701 698 700 701 701 704 705 698 692 694 700 701 700 702 705 707 712 715 715 716 717 718 722 726 730 734 737 739 743 747 751 754 758 762 766 770 774 778 781 785 789 792 794 797 800 802 805 808 811 814 817 820 822 825 827 829 832 834 836 838 840 843 845 847 849 851 852 853 855 856
699 701 703 711 721 720 719 720 717 712 708 700 694 696 697 696 694 694 699 703 701 702 704 700 696 697 702 704 705 706 709 714 720 721 718 717 718 718 720 722 724 727 730 734 738 742 747 751 755 759 764 768 772 775 779 783 787 791 794 797 799 802 805 808 810 813 816 818 821 823 826 828 830 833 835 837 839 842 844 847 849 851 852 853 855 857
697 698 702 710 720 724 722 720 717 718 717 705 694 690 690 693 692 688 693 700 699 699 702 700 698 700 702 706 709 708 711 719 724 720 716 716 718 720 722 724 725 727 730 734 739 743 748 752 756 760 763 767 771 774 778 782 785 789 793 796 798 801 804 806 809 811 814 817 819 822 825 827 829 832 834 836 839 841 844 846 849 851 852 854 855 857
701 701 704 709 718 723 721 720 723 722 714 703 695 688 689 698 696 689 697 706 698 694 700 700 698 701 702 703 707 708 713 723 723 712 708 713 715 717 720 724 726 729 732 735 738 742 746 751 756 760 763 766 769 773 777 780 784 787 791 794 796 799 802 804 807 809 812 815 818 821 824 826 829 831 833 836 838 841 843 846 849 851 853 855 856 857
707 704 707 713 719 723 722 721 723 717 706 699 694 689 692 697 691 693 710 713 697 691 698 698 697 701 704 704 705 707 711 715 711 701 700 707 712 714 717 720 723 727 731 735 739 742 746 750 754 758 761 764 768 772 775 779 782 786 789 791 795 797 799 802 805 808 812 815 818 820 823 826 828 830 833 835 838 841 843 846 848 851 853 855 857 858
713 711 716 718 717 720 721 720 721 715 703 697 695 692 694 694 693 702 712 705 692 691 696 696 696 700 704 705 705 703 700 698 695 693 697 704 710 713 716 719 723 727 730 734 738 742 746 749 752 755 758 762 766 770 774 777 781 784 787 790 793 795 797 800 804 808 811 814 817 819 822 825 827 830 832 835 838 841 843 846 848 851 853 855 857 858
715 717 722 721 718 722 721 719 723 719 704 698 699 695 693 697 701 704 700 694 692 693 693 695 697 698 701 703 702 697 693 693 695 696 699 703 706 710 715 719 724 727 731 734 737 740 744 748 751 755 758 761 764 768 772 776 779 783 786 789 791 793 796 800 803 807 810 813 815 818 821 823 826 829 832 835 838 840 843 846 848 850 853 855 856 858
707 712 719 719 720 725 723 722 728 721 704 700 701 695 693 699 700 695 691 692 694 693 693 696 697 697 699 699 698 696 695 697 699 700 701 703 705 708 713 716 720 724 729 733 736 739 742 746 750 753 757 760 763 766 770 774 777 781 784 786 788 791 795 799 802 805 809 812 814 817 820 822 825 828 831 834 837 840 842 845 848 850 852 854 856 857
701 705 713 715 715 719 719 719 719 711 702 702 702 697 695 697 696 692 690 691 691 693 695 696 696 697 698 695 694 696 696 699 701 702 704 706 707 710 713 716 719 723 727 731 734 738 741 745 748 752 756 759 762 765 769 772 775 779 782 784 787 791 795 798 801 805 808 810 813 816 818 821 824 827 830 833 836 839 842 844 847 849 851 853 855 856
702 702 703 706 710 713 712 709 708 705 704 704 703 700 697 696 696 695 692 690 691 693 694 695 695 697 697 695 695 696 697 699 701 702 704 705 706 709 712 714 718 721 725 729 733 736 740 743 747 751 755 758 761 764 767 771 774 777 780 783 786 790 793 797 800 804 806 809 812 814 817 820 823 826 829 832 835 837 840 843 845 848 850 852 853 854
705 703 700 701 707 711 710 707 706 706 705 704 702 701 699 695 694 695 692 691 692 692 693 693 694 695 696 697 697 698 699 701 702 704 705 705 707 709 711 714 717 720 724 728 732 735 739 743 747 751 754 758 761 764 767 770 772 775 778 781 785 788 791 795 799 802 805 808 810 813 816 819 822 825 828 831 833 836 838 841 843 846 848 850 852 853
704 703 702 703 707 710 710 708 707 706 705 705 703 701 698 696 695 695 694 693 693 693 693 693 694 695 696 696 696 697 699 701 703 706 707 707 708 710 712 714 717 720 723 726 729 734 739 742 746 750 753 757 761 763 766 769 771 774 777 780 783 787 790 794 797 800 803 806 809 812 815 818 821 824 827 830 832 835 838 840 842 844 846 848 849 851
704 702 703 706 708 708 708 706 706 707 706 705 704 701 698 697 696 696 695 694 694 694 694 693 694 695 694 695 696 697 699 701 703 704 706 708 710 711 713 715 718 721 724 728 730 734 738 741 745 749 752 756 759 762 765 768 771 774 777 779 783 786 789 793 796 799 802 805 808 811 813 816 819 822 825 828 831 833 836 838 841 843 844 845 847 848
705 704 706 709 709 710 710 707 706 706 704 703 703 701 700 699 697 695 695 694 693 693 693 694 696 695 695 696 697 697 699 702 702 703 705 708 710 711 713 715 718 721 725 728 731 734 736 740 744 748 751 755 758 761 765 768 770 773 776 778 782 785 788 792 795 798 801 804 807 810 812 815 818 821 824 827 829 832 834 836 839 840 842 844 846 847
705 706 708 710 709 709 707 703 702 703 704 703 701 700 700 701 698 695 694 694 694 694 694 695 696 697 698 699 698 698 699 701 703 704 705 707 709 711 713 716 719 722 724 728 732 735 737 740 743 747 751 754 758 761 764 767 770 772 775 778 780 783 787 790 794 797 800 803 805 808 811 814 817 820 823 825 828 831 834 836 838 840 842 844 846 847
703 704 705 705 705 704 700 699 701 701 701 702 701 700 701 701 698 696 697 697 696 696 696 695 697 698 699 700 701 700 700 701 703 704 706 708 710 711 712 715 718 721 724 728 732 735 738 742 744 747 750 754 757 760 763 766 768 771 774 777 779 782 785 788 792 795 798 801 804 806 809 812 816 819 822 824 827 830 833 835 838 840 842 844 845 847
Wind_Speed
5 4 6 12 14 17 16 12 8 3 2 5 4 4 7 6 4 5 6 6 8 8 6 6 7 8 11 9 6 6 5 5 8 11 11 11 11 9 9 10 8 6 5 6 9 10 12 14 15 16 17 16 17 19 22 22 22 23 24 23 24 24 25 25 24 22 22 22 20 18 17 17 18 18 18 17 16 15 14 13 11 11 11 11 11 10
5 7 13 15 12 11 9 7 7 7 4 3 3 3 4 5 5 6 6 5 5 6 1 3 8 8 9 6 4 5 6 7 10 13 13 13 10 7 8 10 8 6 5 7 9 10 14 16 17 19 18 19 21 22 23 24 24 24 24 23 23 23 22 22 22 22 21 20 20 20 20 20 20 18 18 17 15 14 13 12 10 10 9 9 8 7
6 11 13 10 5 6 7 7 9 8 8 3 3 4 2 3 3 5 4 2 1 3 1 4 8 6 5 4 3 5 6 6 7 8 10 12 11 8 8 9 8 8 7 8 8 10 16 19 19 20 19 20 22 23 23 23 25 25 24 23 23 22 21 21 21 20 18 19 20 21 22 22 20 19 17 15 13 12 12 11 9 8 7 7 6 6
8 8 7 8 7 8 7 7 10 8 7 5 4 5 2 4 2 3 3 4 6 3 5 7 7 4 3 4 3 4 3 3 4 5 4 7 8 9 10 9 10 11 10 11 7 8 15 19 20 19 19 20 21 21 21 22 23 23 23 22 23 22 21 21 19 18 19 21 22 23 23 22 20 19 16 14 12 11 10 9 8 6 5 4 4 4
6 4 6 10 8 10 8 6 9 7 6 6 5 6 3 4 2 3 3 3 5 5 6 9 5 1 3 4 3 3 3 5 5 5 5 6 6 6 8 8 9 10 11 11 8 7 12 17 19 19 19 21 21 21 22 22 22 22 22 22 22 21 20 19 16 18 22 25 26 25 24 22 20 18 16 14 12 10 9 7 6 5 3 2 2 3
6 5 7 13 10 10 9 7 9 8 5 5 5 7 7 5 3 2 4 4 5 3 1 5 3 2 3 5 5 5 5 7 7 8 9 8 7 7 8 8 9 8 9 9 7 8 11 16 19 19 19 21 21 21 22 22 21 21 22 22 21 20 19 17 16 21 25 27 27 27 26 23 21 18 15 14 12 10 9 7 5 4 2 1 1 2
4 6 5 11 12 11 10 9 9 9 6 4 5 9 9 6 3 2 5 4 3 3 4 3 3 3 3 6 7 7 7 7 8 10 11 10 8 9 8 8 10 9 9 9 7 7 12 17 20 20 20 21 21 21 22 21 21 21 21 21 21 20 19 18 19 24 26 27 28 27 25 23 22 19 15 14 12 10 9 7 5 4 3 2 2 2
7 9 6 8 12 11 11 10 9 10 7 4 6 11 10 7 5 4 4 3 3 3 2 1 3 2 3 6 7 9 9 9 9 11 12 11 10 10 9 9 10 10 10 11 10 8 11 17 20 20 20 21 21 22 22 21 21 21 20 20 21 20 20 19 22 26 27 28 28 26 24 23 21 20 17 15 13 11 10 8 6 5 4 4 4 4
8 11 9 7 9 10 11 10 9 10 6 4 7 11 10 8 7 6 4 3 1 4 1 4 2 3 3 4 7 9 9 10 13 15 14 13 13 12 11 11 11 11 11 11 11 9 9 14 18 20 20 21 22 22 22 22 21 20 20 20 20 20 20 20 23 27 27 27 27 25 24 22 20 19 18 17 14 12 10 9 8 7 7 7 7 8
5 11 10 7 8 9 9 7 8 10 6 4 6 8 6 5 5 5 5 3 1 2 5 7 5 3 3 3 7 9 9 12 14 14 13 13 14 13 11 12 11 10 10 9 10 10 9 12 16 20 22 21 22 23 23 22 21 20 20 19 18 18 20 22 25 26 26 26 26 25 24 23 21 20 19 18 15 13 11 10 10 9 9 10 10 11
4 6 8 7 7 6 6 6 7 10 8 4 6 6 5 3 1 2 2 2 2 3 7 9 10 7 3 4 7 9 12 16 14 11 11 13 14 14 12 12 11 10 9 8 8 9 11 14 17 20 22 21 21 23 23 22 21 20 20 19 18 19 21 23 25 25 25 24 24 24 23 23 22 22 21 19 17 15 12 12 12 11 12 12 13 14
8 5 6 5 6 6 6 6 6 8 9 5 5 5 3 2 3 3 3 3 2 7 7 8 11 9 6 4 7 13 15 14 14 13 16 18 17 15 13 11 11 10 9 8 8 9 11 13 17 20 21 21 22 23 23 22 21 21 21 21 21 21 22 23 24 24 24 23 22 23 22 22 23 23 22 20 18 16 14 14 14 14 14 14 15 15
8 6 4 2 6 9 7 6 5 6 8 6 5 6 5 1 1 1 1 1 4 7 5 8 11 7 6 6 10 18 17 13 15 16 18 20 19 16 14 13 11 10 9 9 9 9 8 10 15 21 22 21 22 23 23 22 22 22 23 24 24 23 22 23 24 24 23 22 23 23 23 23 23 22 21 20 19 17 15 15 16 16 17 17 18 18
5 4 3 4 6 9 10 8 6 6 8 9 6 7 7 4 4 5 4 2 4 6 4 6 9 4 4 5 9 17 19 17 16 15 13 15 16 15 14 12 11 10 10 9 9 9 8 9 16 21 21 20 21 23 24 23 23 24 25 25 26 24 22 23 23 24 24 23 24 24 23 23 23 22 20 19 19 17 16 16 17 18 18 19 19 20
5 3 6 8 5 9 12 10 7 6 7 8 5 6 5 5 6 6 5 4 4 4 2 2 5 4 3 4 7 11 15 13 9 6 6 7 8 9 9 10 11 11 10 8 8 9 9 12 17 20 20 20 21 23 24 24 25 26 26 26 27 25 23 23 23 24 24 23 23 22 22 22 22 22 20 19 18 18 17 17 18 19 19 20 21 21
6 5 6 7 5 9 12 8 6 8 6 5 4 6 5 6 5 2 3 6 4 2 1 2 3 4 4 4 6 4 9 9 7 7 8 9 9 9 9 10 11 10 10 9 8 9 11 13 18 20 20 21 22 23 25 26 26 27 27 26 26 25 24 23 23 23 23 22 21 21 22 23 23 22 21 21 19 18 18 17 18 20 20 20 21 22
6 5 4 5 6 9 11 9 7 7 6 4 4 6 5 5 6 2 2 2 4 3 3 1 2 4 2 4 6 2 9 9 9 9 10 11 12 12 11 11 11 10 10 10 8 10 12 13 17 20 21 23 23 24 25 26 26 28 28 27 26 25 24 23 22 22 21 21 22 22 23 23 23 22 22 21 20 20 19 18 18 20 20 21 21 22
5 3 5 7 10 8 7 10 8 6 7 6 6 7 4 4 3 3 2 1 3 3 4 1 3 3 1 2 3 4 9 9 10 11 10 11 13 13 12 11 11 10 10 10 10 10 11 13 16 19 20 23 24 26 26 25 25 28 28 27 27 25 24 23 22 21 21 21 22 23 23 23 22 22 22 21 21 21 19 18 19 20 21 21 21 22
2 2 6 6 10 5 3 8 7 6 7 6 6 7 6 3 3 1 3 2 1 2 3 3 2 2 4 4 3 7 11 11 11 11 12 13 15 14 12 12 12 11 10 10 10 11 11 14 17 20 21 21 24 26 27 25 25 28 28 27 27 25 24 23 21 21 20 21 22 23 23 23 22 22 22 21 21 20 19 19 20 21 22 21 21 21
1 2 3 4 9 7 3 5 7 7 7 4 4 6 6 5 5 4 3 3 3 3 2 2 3 3 5 5 9 14 15 15 14 13 14 16 16 14 13 13 13 12 11 10 10 11 12 15 18 21 23 23 24 26 27 26 27 28 27 26 26 24 22 21 20 20 21 21 21 22 22 22 22 22 21 20 20 20 19 20 22 22 22 22 21 21
1 1 3 3 3 7 5 6 9 10 9 5 4 5 6 3 3 4 3 2 3 3 3 2 1 5 6 5 11 15 15 16 17 16 16 15 15 15 13 14 13 12 11 11 10 11 12 15 18 21 24 25 24 26 27 27 27 27 27 26 25 23 22 21 21 20 21 21 21 22 22 22 22 21 20 20 20 20 21 22 22 22 22 22 21 21
2 2 2 2 2 7 9 7 8 9 8 7 6 5 6 5 4 4 4 1 2 3 3 4 2 7 6 5 10 13 13 15 18 18 16 14 16 16 14 14 13 12 12 12 11 10 11 14 18 20 23 24 24 25 26 26 27 27 26 26 24 23 23 22 21 21 20 21 21 21 21 21 21 21 21 21 21 21 23 23 22 22 22 22 21 20
3 1 1 3 4 6 6 3 6 10 8 6 6 5 4 4 5 6 5 3 1 2 2 4 2 6 6 4 8 10 11 13 16 16 14 12 14 14 14 14 13 12 12 11 11 10 11 15 18 20 23 23 23 25 26 26 27 27 26 26 25 24 23 22 21 20 20 20 20 20 21 21 21 22 21 22 22 23 23 22 22 22 21 21 21 20
2 1 2 4 3 1 1 2 4 9 8 4 4 4 5 5 5 6 5 4 5 4 3 3 2 6 6 4 3 5 5 6 8 9 9 9 9 12 14 14 13 12 12 11 11 9 11 16 18 19 21 22 21 24 26 26 25 26 26 26 25 24 23 22 21 20 19 20 20 20 21 22 22 23 22 22 23 23 23 22 22 22 20 20 20 19
4 2 1 2 2 3 3 2 3 5 6 5 4 4 6 6 7 5 2 3 4 5 6 6 4 6 5 4 2 5 6 5 4 5 7 8 9 11 13 12 12 12 12 12 12 11 12 14 15 17 20 22 22 23 25 26 26 25 26 25 25 25 23 22 21 20 20 21 21 21 22 23 24 23 22 23 23 23 23 23 22 20 19 19 18 18
5 3 3 3 3 4 6 5 4 4 5 5 5 7 7 6 8 5 3 4 4 3 5 6 5 6 6 3 5 6 7 7 6 6 7 8 10 12 12 12 12 12 13 14 14 13 12 12 13 17 19 21 23 23 24 26 26 25 25 25 25 25 24 22 22 22 22 22 22 22 24 24 23 22 23 23 23 23 23 22 20 19 18 16 16 16
2 2 3 6 7 7 7 6 4 3 5 4 5 8 6 4 6 6 4 4 5 4 4 5 6 5 6 2 5 7 9 9 7 9 9 9 10 11 11 11 11 11 12 13 13 12 12 12 13 17 20 21 23 23 24 26 26 26 25 24 25 25 24 23 23 23 24 24 23 23 24 23 22 22 23 22 23 22 22 20 19 17 16 14 13 15
1 3 4 6 7 8 8 6 4 5 6 6 7 8 6 6 7 7 4 6 6 6 4 7 5 7 7 7 9 9 10 10 9 11 12 11 12 12 11 11 11 11 11 12 13 13 13 13 13 16 20 22 23 24 24 24 26 27 27 26 26 25 25 25 25 24 25 24 23 23 23 23 22 22 23 22 22 22 21 19 17 15 14 13 13 15
1 3 4 4 3 4 5 5 5 6 5 6 9 9 7 8 9 8 6 7 7 8 6 7 8 9 9 9 12 13 13 14 13 11 9 10 11 12 13 13 12 13 13 14 15 14 14 14 13 16 19 22 24 25 24 24 25 25 26 26 27 27 27 27 26 25 25 25 24 24 24 24 24 24 23 23 22 22 21 19 17 15 13 12 13 15
2 3 4 2 1 1 3 4 3 7 6 5 8 9 9 10 10 9 6 5 6 6 6 7 10 10 9 8 9 9 8 9 9 8 9 11 13 14 14 14 13 14 15 15 15 15 15 14 14 17 20 22 24 26 26 25 24 24 25 26 27 28 28 27 26 26 26 26 26 26 26 26 26 25 24 24 23 23 22 19 17 15 13 13 14 16
1 3 4 1 3 2 3 3 2 5 7 5 3 4 7 8 6 5 3 3 3 1 2 7 8 8 7 3 4 3 6 8 9 11 12 12 14 15 15 14 14 15 15 15 15 14 14 14 14 16 19 22 25 27 27 27 26 25 25 26 27 29 28 27 27 27 28 28 27 28 28 27 27 26 25 25 24 24 22 20 17 15 14 14 16 17
2 2 3 4 4 4 4 4 4 4 8 5 0 2 6 7 5 4 3 4 6 4 4 7 5 7 6 3 7 7 9 12 13 13 12 11 13 16 16 16 16 16 16 15 15 14 14 15 15 17 20 23 25 27 27 27 27 26 26 26 27 28 28 28 28 28 28 29 29 29 29 28 28 27 26 26 25 24 23 20 18 16 15 16 17 17
3 2 1 3 3 4 5 3 4 5 7 1 4 6 7 5 3 2 1 3 6 7 7 5 6 6 4 6 8 8 9 11 13 13 13 13 14 15 16 17 17 17 17 17 16 16 16 16 17 20 23 25 27 29 29 29 29 29 30 29 28 29 29 28 28 28 28 29 30 30 29 29 29 28 27 27 26 25 23 20 18 16 16 16 16 16
2 4 2 2 3 3 7 5 5 4 4 5 6 6 7 6 6 6 4 5 7 5 4 3 3 3 5 8 10 11 12 14 14 14 14 14 14 14 15 16 16 16 16 15 16 16 15 15 18 22 24 27 29 30 29 29 29 30 31 31 29 29 29 28 28 28 29 30 31 30 30 30 30 29 28 28 27 25 23 21 18 16 16 16 17 17
1 3 2 1 2 2 4 6 5 2 6 7 6 4 5 5 8 8 2 4 4 4 2 2 4 7 9 11 11 13 14 13 11 11 13 14 15 16 16 15 15 15 15 15 15 14 14 16 19 22 24 27 29 28 28 27 26 26 27 28 29 28 28 28 28 28 29 30 31 31 31 31 30 30 29 28 28 26 24 22 19 17 16 16 17 18
4 3 2 2 1 1 2 5 2 5 7 6 5 3 3 2 5 7 2 5 2 5 4 5 7 9 10 7 4 5 5 5 6 5 9 11 13 15 17 16 16 16 16 16 16 17 19 23 25 26 27 29 29 29 28 27 27 27 27 28 28 28 27 28 28 28 30 31 31 32 32 31 31 30 30 29 29 28 26 23 20 18 17 17 18 18
6 4 2 3 1 1 3 1 2 2 3 4 2 2 3 2 4 8 3 3 4 5 6 5 7 8 7 2 4 6 8 8 5 2 6 9 11 13 14 15 17 18 18 19 22 24 27 29 29 29 30 30 30 30 30 29 28 27 27 27 27 27 27 28 28 29 31 31 32 32 32 32 32 31 31 31 30 29 27 25 22 20 19 20 20 19
3 3 4 3 0 2 4 1 3 3 1 4 6 6 3 3 5 6 6 1 6 5 6 6 7 9 8 6 6 7 8 6 2 6 7 9 10 10 10 10 12 15 17 20 22 23 24 26 27 28 30 30 30 30 31 31 30 28 27 27 27 28 28 28 29 30 31 32 32 33 33 33 32 32 32 31 31 30 28 26 23 21 20 20 20 19
4 3 5 4 1 2 3 2 1 1 3 6 8 9 5 2 5 5 5 2 7 5 5 7 8 9 9 9 9 9 7 5 6 8 8 11 12 12 12 11 10 13 17 21 24 25 26 28 28 29 30 30 30 30 31 32 32 30 28 28 28 28 28 28 30 31 31 32 32 33 33 33 33 32 32 31 31 30 29 27 25 22 21 20 20 20
5 4 4 3 1 1 3 1 1 3 4 5 7 8 6 1 5 7 4 6 7 5 5 7 8 7 7 8 10 9 8 8 9 8 9 13 12 11 12 13 13 14 17 20 23 25 27 29 29 29 29 30 31 32 33 34 32 30 29 29 29 28 29 30 31 31 30 31 31 32 32 33 33 32 32 31 30 30 29 27 26 24 23 21 19 19
3 3 3 2 2 2 3 1 2 3 4 5 7 7 6 3 5 5 6 7 5 5 4 6 9 7 7 7 7 7 9 8 4 3 9 13 11 10 11 12 14 17 19 22 25 26 27 29 30 31 31 31 32 33 34 34 31 29 28 28 28 29 31 31 30 29 30 30 31 32 32 32 32 32 32 31 30 29 29 27 26 25 24 22 20 19
1 1 2 3 3 2 1 2 1 3 4 4 6 6 3 2 2 4 6 4 3 3 2 3 7 8 9 9 8 8 7 2 4 6 10 14 14 13 11 11 14 15 18 22 26 28 28 27 27 29 29 30 33 35 35 33 30 29 28 28 29 31 30 29 30 30 30 31 31 32 32 32 32 32 31 31 31 30 29 28 27 26 25 24 22 20
4 3 1 2 3 2 2 3 2 2 5 3 4 4 2 2 4 6 2 0 2 2 1 1 4 7 9 9 10 9 5 2 5 6 10 11 12 12 12 13 14 15 18 21 25 29 29 26 26 28 28 30 33 35 35 34 31 28 28 29 31 30 29 30 31 31 31 31 32 32 32 32 32 32 32 32 31 30 29 28 28 28 27 25 24 22
3 4 2 3 3 3 3 1 2 4 5 2 0 2 2 3 5 4 3 1 1 1 3 2 3 6 9 10 11 11 7 2 3 6 8 8 9 10 11 12 13 15 19 23 25 29 29 26 26 27 28 30 33 34 35 35 31 28 29 30 30 29 29 31 32 31 31 32 32 32 32 32 32 33 33 33 32 31 30 30 29 29 28 27 26 24
3 3 4 3 3 3 5 5 5 4 4 3 2 4 5 2 1 3 4 3 1 1 4 5 4 6 7 7 8 7 6 4 5 7 9 10 11 11 12 13 15 18 21 23 27 30 30 28 27 27 27 29 33 34 34 34 32 30 30 29 29 30 31 32 32 31 32 32 32 33 32 32 32 33 33 33 33 32 32 31 30 30 29 28 27 26
2 1 2 3 2 2 2 1 0 1 3 4 3 4 4 1 2 1 2 3 1 3 3 3 5 6 6 6 5 5 3 3 4 5 7 9 10 11 11 12 15 19 22 23 26 29 29 26 26 26 26 27 31 33 33 34 34 34 32 30 30 32 33 33 33 32 32 32 32 32 32 32 32 33 33 34 34 33 33 33 32 31 30 29 29 27
3 1 3 3 3 3 1 1 1 0 3 5 5 4 2 2 1 1 1 1 1 2 1 1 4 6 6 6 6 5 4 5 6 5 5 7 8 9 10 11 13 18 23 25 27 29 28 25 24 24 25 26 29 32 33 34 34 34 32 32 33 34 34 34 34 33 32 32 32 32 33 33 33 33 33 33 33 32 32 33 33 31 31 31 30 28
2 2 4 3 3 2 3 5 4 2 3 5 3 2 1 2 2 1 1 2 2 2 3 3 3 3 4 5 7 6 5 6 8 7 6 6 7 8 9 10 12 16 20 23 26 29 27 24 24 25 26 27 29 32 33 33 32 31 31 32 33 35 35 34 34 34 33 32 32 33 34 35 35 33 32 33 33 33 32 33 33 32 32 33 32 31
1 2 2 3 3 2 2 4 2 1 3 4 3 2 3 3 2 4 4 4 5 5 5 6 5 4 3 4 6 7 7 6 6 8 8 7 7 8 9 10 15 18 20 23 27 28 27 26 27 27 27 28 30 32 32 31 29 30 31 33 34 35 35 34 33 33 32 32 32 33 33 34 34 34 33 32 33 33 33 34 34 33 33 33 32 30
2 2 1 4 5 2 4 5 4 4 1 3 3 3 5 4 1 6 6 7 7 6 5 6 7 6 5 3 3 6 7 6 5 7 8 7 8 9 9 12 15 17 20 23 25 25 26 27 28 28 27 28 30 31 31 30 29 30 32 34 35 36 36 34 33 31 31 31 32 33 33 33 33 33 33 32 32 31 31 31 32 32 32 31 29 27
3 3 3 5 4 5 7 5 4 5 3 4 4 4 6 3 4 7 5 5 5 4 5 7 7 6 6 5 3 4 7 6 6 8 7 6 7 10 14 17 18 18 21 24 24 23 23 24 26 27 28 28 30 31 31 30 30 31 32 34 36 36 36 35 33 30 30 32 33 34 34 34 33 32 31 31 31 31 30 28 28 29 30 29 27 27
Wind_Direction
161 158 189 201 205 202 202 191 194 259 86 131 123 139 165 175 217 224 230 231 168 166 215 183 154 157 163 167 167 160 155 160 168 168 171 174 174 176 176 175 173 168 160 142 144 151 156 158 157 158 160 157 156 162 168 167 165 166 168 169 168 169 174 174 172 171 167 161 154 151 148 140 136 138 137 133 134 137 137 138 140 141 140 141 139 139
153 195 215 210 206 196 185 161 178 245 262 122 113 144 172 182 215 230 226 239 186 163 240 138 136 158 166 151 147 156 165 186 183 175 177 177 173 172 171 172 167 157 151 144 144 152 155 152 152 152 155 159 160 163 167 168 169 171 173 174 173 174 176 176 177 174 164 155 156 156 148 140 136 138 140 136 136 141 141 140 142 142 140 141 139 136
189 220 218 197 162 135 147 155 167 217 240 215 149 139 188 217 221 249 250 328 24 144 182 150 136 149 155 118 134 168 177 196 199 194 186 175 171 173 176 171 163 159 161 163 159 158 154 147 147 150 155 164 166 164 167 169 172 174 176 177 177 178 179 179 178 168 154 152 161 158 149 145 140 137 141 142 142 146 146 143 144 144 141 142 141 135
201 225 191 143 135 146 160 167 162 191 229 225 175 139 215 241 172 221 248 23 28 92 139 135 121 131 127 98 130 176 178 170 196 218 204 187 185 183 182 174 169 171 171 172 165 153 150 145 147 151 156 161 163 164 166 170 173 174 176 178 179 180 181 183 174 156 154 156 154 151 147 147 144 139 142 146 146 147 146 144 143 142 138 139 137 128
228 248 147 139 159 173 176 176 165 177 212 220 190 152 189 232 195 204 189 92 42 47 105 109 86 56 152 149 171 168 160 161 185 207 202 208 208 191 189 186 183 181 177 172 162 156 150 145 152 157 158 160 163 166 169 172 174 174 176 178 180 180 180 184 169 150 155 152 146 144 141 141 141 139 144 148 143 139 142 141 134 126 116 119 116 111
253 271 155 153 175 184 186 195 184 179 189 220 206 168 174 193 218 224 169 136 75 10 266 117 90 285 180 187 195 165 168 175 186 203 206 205 199 194 193 190 192 188 181 177 167 165 153 148 158 161 159 161 164 169 171 173 174 175 177 177 178 179 177 176 164 154 156 153 150 149 145 144 143 140 144 149 145 141 142 137 129 118 99 91 88 99
229 250 188 166 177 184 199 210 198 177 165 222 208 172 173 174 184 197 171 160 141 210 239 133 142 220 203 213 200 170 179 184 187 205 211 205 197 197 196 190 192 186 180 183 184 175 157 157 166 166 164 164 163 168 171 172 173 175 176 175 177 178 175 171 162 158 158 156 155 154 153 155 155 150 148 152 151 149 144 137 133 124 114 113 108 114
180 216 227 190 177 182 206 211 200 176 158 231 204 163 165 172 187 202 167 172 194 161 155 132 129 148 214 219 187 170 180 184 195 212 213 206 202 201 199 197 194 186 182 184 189 185 165 167 171 167 165 164 162 165 168 169 170 172 173 173 176 177 173 168 163 162 162 160 158 158 158 158 160 158 152 151 151 147 146 141 135 129 125 126 127 133
169 202 216 196 184 196 208 200 180 165 164 228 184 151 160 174 185 200 187 204 182 102 176 239 148 128 246 223 166 172 186 191 202 211 210 203 202 203 199 199 197 190 186 186 190 189 171 168 170 166 162 162 163 164 166 168 168 170 171 173 178 177 170 166 165 165 165 165 163 162 161 156 157 157 152 152 150 147 148 140 132 131 132 133 133 133
179 199 200 188 201 208 197 181 162 161 187 211 147 121 124 152 172 184 195 205 115 98 229 221 175 164 268 225 171 178 196 206 208 209 206 200 201 205 201 196 196 190 186 189 192 191 177 164 162 160 158 159 162 163 164 165 167 169 170 173 177 173 167 166 169 169 166 168 168 166 164 159 156 155 153 151 147 146 146 136 132 132 132 132 131 129
239 192 187 189 208 200 157 161 161 164 187 172 114 100 86 61 56 124 140 104 100 254 237 201 181 183 239 231 188 190 204 206 203 198 197 198 201 203 200 196 194 188 187 187 184 184 177 163 153 153 155 158 158 159 161 162 166 169 169 170 169 165 166 168 170 170 169 171 172 170 169 165 162 160 156 152 146 144 142 135 134 133 133 131 128 127
261 221 200 188 178 162 143 171 170 162 184 167 114 128 120 357 352 35 25 62 166 243 242 195 181 184 220 235 195 207 218 208 198 196 193 194 198 198 194 192 192 188 186 182 175 175 170 159 152 151 154 157 157 157 160 162 165 168 167 165 162 161 166 169 171 173 174 175 176 174 173 171 168 164 160 153 146 144 142 139 138 137 135 131 129 128
251 241 238 209 168 168 161 175 170 162 186 180 127 132 150 191 226 197 241 157 216 247 238 181 170 184 234 236 204 209 215 207 202 203 195 192 193 191 187 186 187 187 184 180 175 174 168 157 154 154 155 158 158 158 161 162 165 166 165 164 162 161 166 171 175 177 177 179 179 178 176 173 168 164 160 154 148 147 146 144 144 142 139 135 132 130
242 279 247 213 187 178 174 177 183 180 184 183 164 155 166 160 165 198 210 218 243 255 253 172 162 192 270 257 223 210 206 205 207 205 195 191 190 185 182 181 182 185 183 179 174 170 167 159 156 157 159 159 159 159 160 161 163 163 164 164 163 163 168 173 176 178 178 178 178 178 175 170 166 163 160 155 151 149 148 147 146 145 143 139 134 132
201 244 216 204 191 175 184 191 171 148 167 184 155 134 161 163 167 193 194 198 230 249 275 140 156 190 204 243 255 222 207 201 192 177 156 164 175 172 174 177 181 185 182 178 173 164 162 162 160 159 160 159 158 158 157 158 161 160 161 164 163 163 168 173 174 175 175 173 173 173 171 168 167 164 160 156 153 150 148 147 145 144 142 139 135 133
191 237 233 212 207 176 182 190 140 125 160 187 121 126 185 182 153 165 181 178 181 204 234 155 189 221 202 255 301 238 196 174 138 128 132 146 160 162 173 184 185 186 180 176 170 157 156 161 161 160 159 158 157 156 155 157 159 158 158 162 163 164 167 169 170 170 170 168 168 169 169 167 167 164 159 155 152 150 148 146 144 143 141 138 136 134
182 255 270 191 208 199 176 172 168 161 165 164 153 174 193 153 124 110 223 180 112 167 245 182 216 292 295 296 329 118 168 160 141 145 151 158 164 169 182 188 187 186 179 176 173 158 154 159 159 158 158 158 157 156 156 158 159 157 158 160 160 160 162 165 166 166 166 166 165 166 167 168 167 166 161 156 153 150 147 143 142 142 140 138 138 136
161 252 274 180 199 227 174 161 184 183 147 148 195 188 117 89 101 93 205 309 69 178 265 318 196 252 210 246 336 116 157 165 160 160 160 164 171 179 187 187 187 184 174 172 170 158 155 159 158 154 155 158 157 156 157 159 159 157 159 161 159 157 159 160 161 162 163 165 164 164 166 167 167 165 161 156 153 150 146 141 142 144 142 141 140 138
150 230 277 195 186 209 147 153 187 205 175 166 182 162 123 140 193 152 173 194 133 183 271 325 297 249 200 195 184 166 173 177 172 168 170 176 183 186 184 183 185 179 170 168 165 161 162 165 161 155 154 156 155 155 157 159 157 156 158 161 161 159 159 159 159 158 159 162 163 163 164 165 165 163 159 155 152 150 147 143 144 146 145 143 142 141
7 144 273 227 177 166 138 166 189 207 207 183 129 150 165 172 181 188 170 164 177 182 203 308 334 275 233 207 186 185 183 177 175 178 186 189 188 185 181 182 182 176 173 169 163 164 165 164 164 159 155 154 155 155 157 159 157 155 158 160 160 160 158 158 159 158 157 160 161 160 161 162 162 161 158 155 153 151 148 147 148 148 147 145 143 142
332 171 246 280 171 157 186 206 192 193 196 185 158 173 187 172 148 188 188 138 149 157 164 167 264 263 250 204 189 193 186 179 180 184 192 194 186 182 182 181 179 174 173 168 163 164 162 160 161 158 153 153 156 157 157 159 157 157 159 161 161 161 159 159 159 159 158 159 161 161 160 161 161 160 157 155 155 152 149 151 150 149 149 147 145 143
201 209 223 274 174 179 208 215 187 183 176 167 180 192 185 162 124 162 214 231 121 154 176 157 194 261 255 191 189 196 188 184 185 186 192 192 182 180 181 180 176 172 170 167 162 161 158 155 156 154 151 153 158 157 156 158 158 159 161 162 164 163 162 161 159 158 159 160 162 163 162 162 161 160 158 156 156 153 151 153 153 152 151 148 146 146
163 176 295 261 227 203 224 244 168 167 145 138 188 194 161 146 124 150 200 229 163 177 152 124 173 261 263 214 194 194 191 192 191 189 189 184 178 176 175 175 173 169 167 163 157 158 158 156 156 154 152 155 160 157 157 160 160 162 164 165 166 165 163 162 160 160 161 162 164 165 163 163 162 160 160 158 157 155 153 154 155 155 153 149 147 147
172 206 278 285 291 208 259 6 134 156 137 134 212 186 147 168 166 158 178 184 180 192 147 118 230 263 281 287 210 168 167 180 189 188 178 167 168 171 171 172 169 166 164 158 153 154 158 156 156 156 154 157 161 159 159 162 163 164 166 166 167 166 164 163 162 163 164 166 168 168 166 164 162 160 160 158 157 155 155 156 155 156 155 151 149 148
204 191 182 275 358 110 150 96 112 166 169 173 205 190 171 165 145 132 130 146 184 206 160 146 217 250 279 323 91 119 115 123 155 166 159 159 165 169 172 171 166 163 160 157 153 154 159 159 157 159 160 160 163 163 162 164 167 167 168 168 167 166 164 165 165 165 166 167 167 166 165 162 160 159 158 157 156 155 156 158 158 158 157 153 152 150
195 174 146 177 158 156 179 183 174 181 179 179 186 185 183 160 144 149 133 140 196 220 154 152 202 250 294 359 115 131 127 130 145 146 150 163 168 171 172 167 163 162 161 160 159 158 162 163 160 162 163 163 164 166 165 166 168 168 168 168 168 167 165 166 167 166 164 164 161 160 161 160 160 160 158 157 157 157 158 160 161 160 158 157 156 155
133 194 172 172 180 186 191 210 223 162 149 177 175 161 160 143 139 132 116 159 189 167 168 208 197 217 276 255 154 160 156 154 158 157 161 166 167 171 170 164 161 161 162 161 159 159 163 166 166 166 166 165 165 167 168 168 168 168 168 168 169 170 167 166 167 166 165 165 162 161 161 162 162 163 161 160 159 160 161 162 163 161 159 160 162 163
66 287 233 186 199 206 190 200 210 153 152 174 158 147 149 141 133 130 156 198 165 130 222 253 189 183 233 219 189 182 168 166 175 175 172 167 165 167 163 158 160 159 159 160 161 164 167 169 169 168 168 167 166 168 170 170 170 171 171 170 171 172 170 168 168 168 169 169 168 167 166 166 167 166 164 164 163 162 163 164 165 164 161 163 166 168
130 281 243 199 239 232 202 213 195 150 153 169 159 158 158 151 153 162 193 206 159 151 220 228 176 192 223 211 199 192 178 178 181 172 160 153 156 160 159 160 164 163 163 166 168 170 172 172 172 170 169 168 167 168 170 171 173 172 170 171 172 171 170 170 170 170 171 171 170 170 169 167 167 166 166 166 166 165 165 166 166 164 162 163 164 165
139 262 245 201 13 252 230 253 191 136 136 166 173 171 165 164 173 175 190 203 165 167 200 176 177 214 228 204 203 201 176 166 153 137 140 152 159 162 164 166 168 168 170 173 174 175 175 174 173 170 168 168 169 169 170 172 173 171 170 171 171 170 171 173 172 172 172 171 170 170 169 169 168 168 168 168 168 167 166 166 166 162 160 159 159 160
126 243 256 104 85 306 311 349 66 121 134 158 182 162 147 149 154 154 168 177 146 153 165 146 172 235 251 187 142 108 112 124 137 151 159 163 164 165 167 171 173 174 177 178 178 177 176 174 172 171 171 172 173 172 172 173 173 173 172 172 171 171 173 175 175 173 173 172 171 171 171 172 171 170 170 169 169 168 167 167 165 163 160 158 157 156
139 224 306 59 75 298 309 35 45 85 108 115 125 135 139 144 157 177 191 181 169 157 106 110 160 239 252 136 112 123 142 151 161 167 164 166 170 169 172 176 178 179 179 179 178 176 177 177 177 176 174 173 174 175 175 174 172 172 173 174 173 172 173 175 174 173 172 172 172 173 174 174 172 171 171 170 169 168 167 166 164 163 161 159 157 156
151 128 17 73 91 282 296 10 49 87 98 120 243 191 167 172 182 178 192 195 177 152 129 146 201 222 193 139 133 144 158 168 176 175 170 172 175 177 179 179 180 183 181 180 180 180 181 182 181 178 175 175 177 179 179 177 175 176 177 177 176 173 172 173 172 171 170 171 172 174 174 174 173 171 171 170 170 169 168 166 164 162 162 159 157 157
153 120 134 120 108 268 295 351 42 97 151 230 242 190 168 174 171 166 196 219 194 162 146 183 190 150 150 159 159 163 177 187 187 182 175 171 172 179 184 184 184 184 182 181 182 183 182 181 180 178 177 178 180 181 181 181 180 180 179 177 175 173 171 171 170 170 170 170 172 174 174 174 173 172 171 172 171 169 168 167 163 161 161 160 160 161
123 112 129 86 92 264 314 30 63 189 222 243 264 237 192 175 161 160 203 261 199 166 155 166 156 163 181 189 177 175 187 189 178 176 177 176 176 177 180 186 186 182 182 184 184 183 182 179 177 177 177 179 180 179 180 181 180 178 176 174 173 172 171 170 170 170 171 171 173 174 174 174 174 173 173 173 172 171 169 168 165 162 161 162 162 163
130 137 116 77 88 274 19 64 138 226 254 285 296 219 169 98 113 125 43 325 230 174 184 206 203 191 191 200 183 154 156 133 122 162 185 183 182 180 179 183 183 182 185 186 183 183 183 182 180 179 178 178 179 178 178 179 180 177 175 174 173 171 170 170 169 170 172 174 175 175 176 176 174 174 174 174 173 172 170 169 167 164 161 159 158 159
131 142 99 68 92 137 101 122 257 291 320 316 308 174 159 147 149 144 137 298 258 189 182 210 221 197 174 137 61 83 89 85 88 220 214 194 191 191 188 185 183 185 188 186 186 186 185 184 183 180 178 177 177 178 178 178 178 176 172 172 171 170 170 170 171 173 175 177 177 177 177 177 176 174 174 175 174 173 172 170 167 163 161 158 155 155
118 143 130 118 108 84 93 35 350 29 337 262 262 269 258 188 182 152 126 247 271 233 187 192 208 190 159 121 98 103 100 98 170 233 216 193 190 189 191 195 192 190 186 181 181 182 182 182 181 179 178 177 178 179 178 177 176 173 170 170 171 172 172 174 176 178 178 179 179 179 179 179 178 176 175 175 176 174 173 171 168 166 164 160 155 152
61 85 103 99 20 44 99 103 100 165 236 248 260 282 298 172 166 133 118 231 270 250 192 185 199 191 164 144 139 129 116 140 220 235 199 180 184 183 182 189 189 186 185 182 179 177 177 178 178 177 178 177 177 177 176 176 176 172 171 174 174 175 176 178 181 182 181 181 180 180 181 181 181 180 177 177 178 178 176 174 171 168 166 161 155 150
61 67 82 90 97 117 112 102 221 218 245 257 263 285 307 37 112 112 159 245 265 254 205 176 179 184 168 154 149 143 153 185 221 230 186 171 177 181 181 183 181 177 179 180 180 177 174 174 174 175 177 178 177 176 176 176 175 174 175 176 176 178 182 184 185 183 182 181 180 181 183 183 183 183 182 181 182 181 180 178 175 172 169 163 158 153
61 59 82 130 157 135 111 88 288 270 266 273 282 293 306 2 74 113 202 228 239 249 228 167 158 160 156 159 162 174 190 199 214 181 152 153 163 177 181 178 175 175 175 175 175 173 172 174 177 178 179 178 176 175 176 175 174 175 176 176 178 184 187 186 183 182 181 181 180 182 184 186 186 187 186 185 185 183 182 182 180 178 175 171 167 162
132 71 71 122 147 142 117 99 355 289 264 272 296 304 322 64 134 207 222 216 198 237 269 154 161 161 160 175 196 209 209 191 66 112 146 157 168 172 166 159 161 168 172 171 172 172 172 176 179 179 179 177 175 175 175 174 175 176 176 178 185 189 187 182 181 181 181 181 181 183 185 186 188 188 187 187 187 185 184 185 185 183 180 178 177 173
165 144 138 186 167 128 70 67 66 248 249 285 323 336 50 113 210 221 217 215 213 203 78 88 191 181 171 185 212 228 235 37 71 139 161 166 168 162 159 161 161 162 165 167 171 175 174 174 178 179 177 175 175 175 175 175 176 176 177 184 190 189 183 180 181 181 181 181 183 185 186 186 188 188 188 188 188 187 186 186 187 186 185 184 183 180
165 149 170 214 185 124 112 166 205 216 241 283 342 196 211 224 221 198 136 73 302 169 134 146 225 213 193 191 206 216 208 153 127 156 159 161 163 158 158 162 159 161 166 168 172 176 175 175 177 177 175 175 175 176 177 177 176 176 182 189 189 183 179 180 180 180 180 182 184 185 186 187 188 188 189 189 189 188 187 186 186 187 188 189 188 186
206 194 175 180 185 161 171 206 220 224 258 277 204 220 253 275 217 173 138 113 7 224 166 150 169 207 208 205 213 219 207 184 178 172 165 166 168 164 162 164 164 165 167 168 172 175 177 176 176 173 172 174 176 176 179 179 177 179 185 188 185 181 179 179 179 180 181 183 185 185 186 186 186 188 190 191 190 189 187 186 186 187 189 191 192 191
254 235 130 122 152 165 167 226 279 31 309 309 299 265 274 356 32 15 89 89 304 265 219 153 152 174 186 187 200 224 228 188 176 180 175 168 165 164 162 161 163 164 164 167 172 175 175 173 172 170 169 172 176 177 179 181 183 184 186 186 184 182 180 178 179 181 182 184 185 185 184 183 184 187 190 191 191 191 190 189 188 189 190 192 193 194
305 57 84 87 103 113 119 274 297 30 285 293 307 311 330 29 14 245 146 121 278 283 308 84 131 144 146 149 159 172 171 155 154 166 169 160 161 164 159 157 161 164 168 171 172 171 170 168 167 168 168 171 176 178 180 183 188 188 187 185 183 181 179 179 180 181 182 183 184 183 183 183 184 186 188 189 190 190 190 190 191 192 192 193 195 195
308 73 90 94 91 115 207 238 249 261 273 270 262 251 26 41 38 53 113 120 98 66 37 38 70 102 119 137 142 138 142 156 157 156 156 156 157 158 158 160 162 164 167 169 169 168 168 166 166 168 170 173 176 179 182 185 188 188 186 184 181 179 178 180 181 182 183 183 182 182 183 184 185 185 186 187 188 188 189 191 194 195 196 195 194 193
4 43 102 119 87 76 230 240 249 337 343 327 312 300 300 307 23 49 46 53 59 50 39 42 47 58 88 127 140 130 132 153 159 151 152 155 156 159 162 162 161 162 164 167 169 170 169 167 168 171 173 175 177 179 183 185 186 187 186 183 181 179 179 180 182 182 182 181 181 182 183 184 186 186 186 186 188 190 193 196 198 199 199 199 198 197
68 62 145 110 99 135 213 212 179 144 145 278 281 323 311 289 63 64 46 40 41 40 47 52 46 47 62 79 119 129 137 155 158 151 153 158 161 162 158 154 155 159 162 164 168 171 171 171 172 172 172 175 177 179 182 183 184 187 187 183 181 181 181 181 180 180 180 180 181 182 182 183 185 186 187 187 188 190 195 199 203 204 204 204 205 206
126 156 166 141 153 215 229 213 168 138 160 228 250 308 314 307 79 68 42 23 26 38 69 71 56 44 42 33 50 132 150 160 157 150 149 154 160 159 157 157 158 158 160 163 166 168 170 172 172 171 172 175 177 179 181 182 184 186 185 183 183 184 184 181 178 177 179 181 182 183 183 184 185 187 187 188 189 191 194 198 203 207 210 212 213 214